| time (UTC) | temp F | wind direction | speed knots | gust knots | rain 1hr in | rain 24hr in | rain mn in | humidity % | barometer mb |
| 20260507105046 | 59 | 16 | 2.6 | 7.0 | 0.00 | 0.05 | 0.00 | 60 | 1015.3 |
| 20260507104041 | 58 | 58 | 3.5 | 7.8 | 0.00 | 0.05 | 0.00 | 58 | 1015.3 |
| 20260507103045 | 58 | 60 | 3.5 | 7.0 | 0.00 | 0.05 | 0.00 | 60 | 1015.3 |
| 20260507102043 | 58 | 32 | 2.6 | 6.1 | 0.00 | 0.06 | 0.00 | 68 | 1015.3 |
| 20260507101046 | 57 | 329 | 2.6 | 6.1 | 0.00 | 0.06 | 0.00 | 72 | 1015.2 |
| 20260507100046 | 56 | 328 | 2.6 | 6.1 | 0.00 | 0.06 | 0.00 | 71 | 1015.2 |
| 20260507093044 | 56 | 329 | 2.6 | 5.2 | 0.00 | 0.08 | 0.00 | 78 | 1015.1 |
| 20260507092046 | 56 | 12 | 1.7 | 5.2 | 0.00 | 0.08 | 0.00 | 79 | 1015.1 |
| 20260507091044 | 56 | 330 | 2.6 | 5.2 | 0.00 | 0.08 | 0.00 | 79 | 1015.1 |
| 20260507090044 | 56 | 17 | 1.7 | 5.2 | 0.00 | 0.09 | 0.00 | 80 | 1015.0 |
| 20260507085044 | 56 | 6 | 2.6 | 5.2 | 0.00 | 0.09 | 0.00 | 81 | 1014.9 |
| 20260507083045 | 55 | 152 | 1.7 | 5.2 | 0.00 | 0.11 | 0.00 | 81 | 1014.8 |
| 20260507081047 | 53 | 21 | 2.6 | 5.2 | 0.00 | 0.12 | 0.00 | 83 | 1014.8 |
| 20260507080044 | 51 | 35 | 1.7 | 5.2 | 0.00 | 0.13 | 0.00 | 87 | 1014.8 |
| 20260507075047 | 49 | 317 | 1.7 | 4.3 | 0.00 | 0.13 | 0.00 | 88 | 1014.8 |
| 20260507074045 | 49 | 309 | 2.6 | 4.3 | 0.00 | 0.14 | 0.00 | 89 | 1014.7 |
| 20260507073046 | 49 | 313 | 1.7 | 4.3 | 0.00 | 0.15 | 0.00 | 90 | 1014.6 |
| 20260507072044 | 49 | 307 | 1.7 | 3.5 | 0.00 | 0.17 | 0.00 | 90 | 1014.6 |
| 20260507071045 | 49 | 311 | 2.6 | 4.3 | 0.00 | 0.17 | 0.00 | 90 | 1014.5 |
| 20260507065043 | 49 | 322 | 2.6 | 4.3 | 0.00 | 0.17 | 0.00 | 91 | 1014.4 |
| 20260507063045 | 48 | 311 | 1.7 | 3.5 | 0.00 | 0.18 | 0.00 | 92 | 1014.3 |
| 20260507062047 | 48 | 78 | 0.9 | 3.5 | 0.00 | 0.19 | 0.00 | 93 | 1014.1 |
| 20260507061047 | 48 | 151 | 0.9 | 3.5 | 0.00 | 0.19 | 0.00 | 94 | 1014.2 |
| 20260507060045 | 48 | 343 | 0.9 | 2.6 | 0.00 | 0.19 | 0.00 | 94 | 1014.1 |
| 20260507054046 | 47 | 321 | 1.7 | 4.3 | 0.00 | 0.20 | 0.00 | 96 | 1013.9 |
| 20260507053043 | 47 | 319 | 1.7 | 3.5 | 0.00 | 0.20 | 0.00 | 96 | 1013.9 |
| 20260507052046 | 47 | 314 | 1.7 | 3.5 | 0.00 | 0.21 | 0.00 | 97 | 1013.8 |
| 20260507051045 | 47 | 328 | 0.9 | 2.6 | 0.00 | 0.23 | 0.00 | 97 | 1013.6 |
| 20260507050043 | 47 | 316 | 0.9 | 2.6 | 0.00 | 0.24 | 0.00 | 98 | 1013.5 |
| 20260507044046 | 46 | 330 | 0.9 | 1.7 | 0.00 | 0.26 | 0.00 | 99 | 1013.2 |
| 20260507043045 | 46 | 337 | 0.9 | 1.7 | 0.00 | 0.27 | 0.00 | 98 | 1013.1 |
| 20260507042047 | 46 | 320 | 0.9 | 1.7 | 0.00 | 0.27 | 0.00 | 98 | 1013.0 |
| 20260507041044 | 46 | 316 | 0.9 | 1.7 | 0.00 | 0.28 | 0.00 | 98 | 1012.9 |
| 20260507034044 | 46 | 310 | 0.9 | 1.7 | 0.00 | 0.30 | 0.00 | 98 | 1012.8 |
| 20260507033044 | 46 | 315 | 0.0 | 1.7 | 0.00 | 0.31 | 0.00 | 98 | 1012.8 |
| 20260507031046 | 47 | 306 | 0.9 | 2.6 | 0.00 | 0.33 | 0.00 | 98 | 1012.7 |
| 20260507030045 | 47 | 302 | 1.7 | 2.6 | 0.00 | 0.35 | 0.00 | 97 | 1012.6 |
| 20260507024044 | 47 | 293 | 1.7 | 2.6 | 0.00 | 0.39 | 0.00 | 97 | 1012.6 |
| 20260507022045 | 47 | 288 | 2.6 | 3.5 | 0.00 | 0.44 | 0.00 | 97 | 1012.4 |
| 20260507021047 | 47 | 291 | 2.6 | 3.5 | 0.00 | 0.45 | 0.00 | 96 | 1012.4 |
| 20260507020047 | 47 | 292 | 2.6 | 3.5 | 0.00 | 0.46 | 0.00 | 96 | 1012.4 |
| 20260507015045 | 47 | 291 | 1.7 | 2.6 | 0.00 | 0.47 | 0.00 | 96 | 1012.4 |
| 20260507014042 | 47 | 288 | 1.7 | 3.5 | 0.00 | 0.48 | 0.00 | 97 | 1012.4 |
| 20260507013043 | 47 | 290 | 2.6 | 3.5 | 0.00 | 0.50 | 0.00 | 97 | 1012.4 |
| 20260507012042 | 47 | 291 | 1.7 | 3.5 | 0.00 | 0.51 | 0.00 | 97 | 1012.3 |
| 20260507011047 | 47 | 300 | 2.6 | 3.5 | 0.00 | 0.52 | 0.00 | 97 | 1012.2 |
| 20260507010046 | 47 | 300 | 1.7 | 3.5 | 0.00 | 0.54 | 0.00 | 97 | 1012.1 |
| 20260507004048 | 47 | 303 | 1.7 | 2.6 | 0.00 | 0.55 | 0.00 | 97 | 1012.2 |
| 20260507003044 | 47 | 309 | 0.9 | 2.6 | 0.00 | 0.57 | 0.00 | 97 | 1012.2 |
| 20260507002044 | 47 | 314 | 0.9 | 1.7 | 0.00 | 0.58 | 0.00 | 97 | 1012.1 |
| 20260507001043 | 46 | 329 | 0.9 | 2.6 | 0.00 | 0.60 | 0.00 | 97 | 1012.1 |
| 20260507000050 | 46 | 356 | 0.9 | 2.6 | 0.00 | 0.61 | 0.00 | 97 | 1012.1 |
| 20260506235047 | 46 | 2 | 0.9 | 2.6 | 0.00 | 0.61 | 0.00 | 97 | 1012.0 |
| 20260506234048 | 46 | 351 | 1.7 | 3.5 | 0.00 | 0.61 | 0.00 | 97 | 1012.0 |
| 20260506232046 | 46 | 352 | 1.7 | 3.5 | 0.00 | 0.63 | 0.00 | 96 | 1011.9 |
| 20260506231047 | 46 | 352 | 1.7 | 4.3 | 0.00 | 0.64 | 0.00 | 97 | 1011.9 |
| 20260506230050 | 46 | 356 | 1.7 | 5.2 | 0.00 | 0.65 | 0.00 | 96 | 1011.8 |
| 20260506225046 | 46 | 351 | 1.7 | 5.2 | 0.00 | 0.65 | 0.00 | 96 | 1011.7 |
| 20260506223046 | 46 | 352 | 1.7 | 5.2 | 0.00 | 0.67 | 0.00 | 96 | 1011.4 |
| 20260506221046 | 47 | 326 | 1.7 | 4.3 | 0.00 | 0.69 | 0.00 | 97 | 1011.2 |
| 20260506220055 | 47 | 336 | 1.7 | 5.2 | 0.00 | 0.70 | 0.00 | 96 | 1011.1 |
| 20260506215049 | 47 | 346 | 1.7 | 5.2 | 0.00 | 0.71 | 0.70 | 96 | 1011.0 |
| 20260506214049 | 47 | 353 | 1.7 | 4.3 | 0.00 | 0.72 | 0.70 | 96 | 1010.9 |
| 20260506212050 | 47 | 356 | 1.7 | 4.3 | 0.00 | 0.72 | 0.70 | 96 | 1010.8 |
| 20260506211050 | 47 | 353 | 2.6 | 6.1 | 0.00 | 0.73 | 0.70 | 96 | 1010.8 |
| 20260506210049 | 47 | 355 | 2.6 | 4.3 | 0.00 | 0.74 | 0.70 | 95 | 1010.9 |
| 20260506204048 | 47 | 359 | 2.6 | 4.3 | 0.00 | 0.76 | 0.70 | 95 | 1010.8 |
| 20260506203050 | 47 | 9 | 1.7 | 5.2 | 0.00 | 0.76 | 0.70 | 95 | 1010.7 |
| 20260506202051 | 47 | 2 | 2.6 | 5.2 | 0.00 | 0.77 | 0.70 | 95 | 1010.7 |
| 20260506201051 | 47 | 6 | 1.7 | 5.2 | 0.00 | 0.78 | 0.70 | 95 | 1010.7 |
| 20260506194052 | 48 | 4 | 1.7 | 5.2 | 0.00 | 0.80 | 0.70 | 94 | 1010.4 |
| 20260506193050 | 48 | 5 | 2.6 | 6.1 | 0.00 | 0.81 | 0.70 | 94 | 1010.3 |
| 20260506192047 | 48 | 10 | 1.7 | 5.2 | 0.00 | 0.82 | 0.70 | 94 | 1010.2 |
| 20260506191049 | 48 | 157 | 2.6 | 6.1 | 0.00 | 0.83 | 0.70 | 94 | 1010.1 |
| 20260506190051 | 48 | 10 | 2.6 | 5.2 | 0.00 | 0.83 | 0.70 | 94 | 1010.0 |
| 20260506185049 | 48 | 26 | 2.6 | 7.0 | 0.00 | 0.84 | 0.70 | 94 | 1010.0 |
| 20260506183050 | 48 | 9 | 2.6 | 5.2 | 0.00 | 0.85 | 0.70 | 94 | 1009.8 |
| 20260506182049 | 48 | 5 | 2.6 | 7.0 | 0.00 | 0.86 | 0.70 | 93 | 1009.6 |
| 20260506181046 | 49 | 2 | 2.6 | 6.1 | 0.00 | 0.87 | 0.70 | 91 | 1009.5 |
| 20260506180048 | 49 | 356 | 1.7 | 4.3 | 0.00 | 0.87 | 0.70 | 90 | 1009.4 |
| 20260506175050 | 49 | 3 | 1.7 | 3.5 | 0.00 | 0.87 | 0.70 | 90 | 1009.3 |
| 20260506174048 | 49 | 358 | 1.7 | 3.5 | 0.00 | 0.87 | 0.70 | 91 | 1009.1 |
| 20260506173047 | 49 | 9 | 1.7 | 4.3 | 0.00 | 0.87 | 0.70 | 92 | 1009.1 |
| 20260506170045 | 49 | 1 | 1.7 | 4.3 | 0.00 | 0.87 | 0.70 | 91 | 1008.9 |
| 20260506165045 | 49 | 1 | 1.7 | 3.5 | 0.00 | 0.87 | 0.70 | 90 | 1008.9 |
| 20260506164046 | 50 | 186 | 1.7 | 4.3 | 0.00 | 0.87 | 0.70 | 91 | 1008.8 |
| 20260506163046 | 50 | 2 | 1.7 | 5.2 | 0.00 | 0.87 | 0.70 | 91 | 1008.7 |
| 20260506162049 | 50 | 3 | 2.6 | 5.2 | 0.00 | 0.87 | 0.70 | 90 | 1008.7 |
| 20260506161046 | 50 | 7 | 2.6 | 9.6 | 0.00 | 0.87 | 0.70 | 91 | 1008.7 |
| 20260506160046 | 50 | 359 | 3.5 | 7.8 | 0.00 | 0.87 | 0.70 | 90 | 1008.6 |
| 20260506155046 | 50 | 9 | 3.5 | 7.8 | 0.00 | 0.87 | 0.70 | 90 | 1008.6 |
| 20260506154052 | 50 | 11 | 3.5 | 9.6 | 0.00 | 0.87 | 0.70 | 90 | 1008.5 |
| 20260506153046 | 50 | 21 | 4.3 | 8.7 | 0.00 | 0.87 | 0.70 | 90 | 1008.5 |
| 20260506152048 | 51 | 274 | 4.3 | 8.7 | 0.00 | 0.87 | 0.70 | 91 | 1008.4 |
| 20260506151047 | 50 | 10 | 3.5 | 8.7 | 0.00 | 0.87 | 0.70 | 91 | 1008.4 |
| 20260506145048 | 50 | 11 | 4.3 | 9.6 | 0.00 | 0.87 | 0.70 | 91 | 1008.4 |
| 20260506144046 | 51 | 263 | 4.3 | 8.7 | 0.00 | 0.87 | 0.70 | 92 | 1008.3 |
| 20260506143046 | 50 | 6 | 3.5 | 8.7 | 0.00 | 0.87 | 0.70 | 92 | 1008.3 |
| 20260506142046 | 50 | 16 | 3.5 | 7.0 | 0.01 | 0.87 | 0.70 | 94 | 1008.4 |
| 20260506141047 | 50 | 304 | 3.5 | 8.7 | 0.01 | 0.87 | 0.70 | 94 | 1008.4 |
| 20260506140051 | 50 | 14 | 3.5 | 7.0 | 0.01 | 0.87 | 0.70 | 96 | 1008.4 |
| 20260506135047 | 49 | 15 | 3.5 | 8.7 | 0.01 | 0.87 | 0.70 | 96 | 1008.4 |
| 20260506134047 | 49 | 306 | 2.6 | 7.0 | 0.01 | 0.87 | 0.70 | 97 | 1008.4 |
| 20260506133048 | 49 | 10 | 3.5 | 9.6 | 0.01 | 0.87 | 0.70 | 98 | 1008.4 |
| 20260506131048 | 49 | 23 | 4.3 | 11.3 | 0.01 | 0.86 | 0.69 | 96 | 1008.3 |
| 20260506130045 | 50 | 57 | 3.5 | 7.8 | 0.02 | 0.86 | 0.69 | 96 | 1008.1 |
| 20260506125045 | 50 | 51 | 4.3 | 7.8 | 0.02 | 0.86 | 0.69 | 96 | 1008.0 |
| 20260506124047 | 51 | 11 | 3.5 | 10.4 | 0.02 | 0.86 | 0.69 | 95 | 1007.9 |
| 20260506123046 | 51 | 5 | 4.3 | 8.7 | 0.02 | 0.86 | 0.69 | 97 | 1007.8 |
| 20260506122046 | 50 | 26 | 4.3 | 11.3 | 0.02 | 0.86 | 0.69 | 96 | 1007.8 |
| 20260506120044 | 51 | 337 | 3.5 | 7.8 | 0.02 | 0.85 | 0.69 | 96 | 1007.5 |
| 20260506115045 | 51 | 332 | 3.5 | 7.0 | 0.02 | 0.84 | 0.68 | 96 | 1007.4 |
| 20260506112048 | 50 | 331 | 3.5 | 7.8 | 0.02 | 0.83 | 0.67 | 95 | 1007.4 |
| 20260506111048 | 51 | 1 | 3.5 | 7.0 | 0.03 | 0.83 | 0.67 | 95 | 1007.3 |
| 20260506110045 | 52 | 25 | 3.5 | 7.0 | 0.02 | 0.83 | 0.66 | 96 | 1007.3 |